Location: Goettingen
(51.5300°N, 9.9433°E)
Time: 03:59:32
(UTC+01:00)

ISS - Pass Details

Date: 03 December 2021
Orbit: 417 x 423 km, 51.6° (Epoch: 28 November)

Event Time Altitude Azimuth Distance (km) Brightness Sun altitude
Rises 17:07:57 0° 277° (W) 2,379 1.1 -8.1°
Reaches altitude 10° 17:10:04 10° 277° (W) 1,513 0.1 -8.4°
Maximum altitude 17:13:28 86° 193° (SSW) 430 -3.7 -8.9°
Drops below altitude 10° 17:16:52 10° 101° (E) 1,511 -1.4 -9.4°
Enters shadow 17:17:04 - 101° (E) 1,594 -1.3 -9.4°
